Location: Del Amo
(33.8464°N, 118.2104°W)
Time: 20:47:44
(UTC+00:00)

Courier 1B Rocket - Pass Details

Date: 13 September 2024
Orbit: 920 x 1201 km, 28.3° (Epoch: 13 October)

Event Time Altitude Azimuth Distance (km) Brightness Sun altitude
Rises 04:01:24 0° 269° (W) 3,925 9.2 -24.7°
Reaches altitude 10° 04:04:12 10° 264° (W) 3,004 8.3 -25.3°
Maximum altitude 04:11:19 48° 192° (SSW) 1,490 5.8 -26.6°
Enters shadow 04:12:39 44° 164° (SSE) 1,575 5.7 -26.9°
